CAPE
1748 1610 1639 1476 1707 1239 1183 1402 1615 1776 1642 1684 1553 1310 1208 1315 1438 1512 1319 1258 1252 1343 938 903 688 655 726 951 476 517 383 609 837 334 378 417 596 1017 1388 1628 1121 647
1468 1392 1438 1452 1455 1694 1710 1899 1795 1621 1630 1549 1257 1451 1524 1308 1254 1297 1254 1181 1003 766 826 809 713 745 782 822 748 538 519 1123 675 983 832 466 542 473 976 928 649 454
1249 1330 1321 1363 1322 1471 1784 1782 1872 1640 1258 1635 1304 1147 1102 1000 1474 1258 1279 1154 1086 1271 1075 1006 674 856 929 857 723 759 1166 1152 1236 1139 1118 964 889 954 524 649 479 456
1224 1265 1300 1248 1302 1323 1522 1507 1434 1058 1202 1508 1294 1136 938 919 1430 1184 1211 1109 912 1198 1060 1129 1267 1059 818 761 793 882 800 653 930 680 658 586 793 648 434 407 467 342
1156 1241 1215 1254 1300 1137 1212 1296 1149 1121 1282 1014 819 859 964 1160 855 1248 1217 1119 958 1334 902 748 845 1011 636 714 663 691 629 692 592 547 512 529 591 449 430 309 369 392
1273 1074 911 1030 1057 1060 1159 1178 1100 812 828 807 743 740 949 771 1264 876 876 875 1244 814 877 1051 824 665 512 551 496 575 648 618 633 586 539 592 688 503 374 283 341 554
1180 1131 1066 1067 1041 1194 1117 1052 806 668 684 714 611 598 530 928 1151 938 823 1139 1142 779 859 1004 715 778 432 471 314 309 661 528 570 525 556 514 338 740 456 406 562 274
947 1044 1045 1043 1145 1711 1464 900 747 708 357 507 780 480 604 1144 985 992 1014 1071 1178 1027 727 544 912 638 395 451 181 316 678 722 622 663 480 445 444 495 426 539 464 380
664 781 882 863 964 1192 1183 964 800 853 763 567 626 538 466 942 1004 909 878 572 481 841 689 738 601 472 933 530 416 585 722 711 666 760 605 506 423 484 360 503 446 842
694 686 705 834 837 897 852 799 820 626 314 255 562 661 528 517 1046 547 702 530 578 1106 1155 874 1008 645 555 725 681 789 540 462 488 379 389 264 292 449 394 601 756 822
360 480 583 678 746 867 774 793 794 608 509 420 751 539 544 952 732 940 812 480 464 600 866 546 692 315 483 419 657 632 781 597 258 366 357 423 454 431 657 330 412 504
224 310 425 570 656 677 701 793 925 774 599 670 531 418 685 574 579 630 577 461 631 657 656 730 363 483 443 400 362 491 502 534 172 350 577 392 700 776 381 467 805 404
74 168 239 361 481 497 618 632 789 886 646 474 678 368 364 556 300 404 714 706 460 582 599 513 601 978 1126 1170 1112 712 457 357 250 508 608 846 882 736 668 674 372 298
77 141 178 263 364 475 504 517 472 490 752 498 319 309 315 322 512 560 572 610 557 431 459 585 807 1074 977 1132 1250 1018 1085 882 674 818 911 928 635 619 447 348 363 676
41 150 229 334 415 390 394 499 506 572 688 720 530 525 392 294 263 374 511 464 424 460 491 518 662 818 646 869 1026 799 1396 1096 926 805 1116 735 519 369 328 213 264 801
29 119 172 257 352 308 338 261 246 394 537 530 541 425 351 375 410 379 400 369 349 454 522 684 643 690 656 691 823 824 864 874 578 749 665 485 296 558 500 234 844 670
16 67 79 94 229 253 276 237 194 149 301 483 523 425 212 295 272 358 284 347 371 332 316 404 458 442 387 476 423 225 377 487 647 559 474 275 314 213 205 370 693 414
6 20 30 33 82 88 97 63 50 26 46 57 67 241 177 100 196 201 134 194 291 374 424 588 536 528 375 332 193 199 200 466 356 291 151 159 273 303 420 761 938 843
6 8 8 10 6 7 7 6 6 4 4 13 24 25 26 69 204 131 122 140 227 281 293 331 402 438 474 395 292 203 176 168 231 234 224 224 626 473 816 1086 724 492
7 8 10 8 5 4 4 2 3 3 5 6 16 56 53 60 52 66 90 107 136 154 138 221 215 323 434 333 352 314 254 138 103 227 273 444 365 549 901 649 504 865
6 8 8 7 5 3 3 2 2 2 3 4 3 10 60 67 50 88 89 67 84 111 50 100 41 57 58 154 197 309 270 7 42 175 86 341 614 563 513 642 422 405
4 4 6 5 5 3 3 3 5 5 5 4 3 4 5 50 84 64 68 24 74 72 80 74 22 101 119 188 116 167 144 339 564 200 188 274 529 404 196 596 561 354
3 3 4 4 4 2 3 4 5 4 4 4 4 3 2 16 42 35 8 10 88 68 28 1 43 96 100 90 124 80 77 340 257 133 322 566 478 216 200 216 280 233
4 3 4 4 6 4 3 3 4 4 4 6 3 2 2 4 6 7 6 4 3 2 13 7 25 81 92 123 110 90 109 224 74 90 305 271 273 268 220 187 180 226
4 4 2 3 4 6 7 5 4 3 7 14 10 6 8 9 3 4 6 6 11 12 10 12 27 40 66 76 63 138 161 145 121 64 170 235 154 180 206 160 220 300
4 4 4 4 4 3 3 5 4 3 14 23 21 4 2 3 9 2 0 2 4 8 4 7 6 19 12 38 115 111 125 102 71 122 107 84 51 103 165 134 95 175
Wind_Speed
27 27 27 30 33 37 37 35 32 30 30 28 25 22 18 18 22 23 22 25 25 25 21 21 21 16 15 21 19 12 11 12 18 19 17 17 13 15 17 17 18 19
28 28 31 32 35 36 37 36 33 30 28 26 23 20 17 16 18 21 22 23 26 27 22 20 21 17 16 19 20 17 12 16 18 18 20 16 17 16 19 18 21 17
31 32 32 33 35 34 33 33 32 30 26 23 21 20 19 15 16 19 22 22 25 27 26 22 22 20 20 20 21 17 18 19 19 20 20 19 19 20 19 18 20 14
33 33 33 33 32 31 29 28 29 25 23 22 21 20 21 14 15 16 18 21 23 25 25 24 22 22 23 22 18 19 19 19 18 19 18 19 18 17 18 19 19 20
32 31 30 29 28 28 28 26 25 23 20 21 19 17 17 15 12 15 18 20 23 26 25 24 23 25 26 24 21 19 19 20 18 17 15 16 17 17 19 19 21 14
27 25 24 24 25 28 30 27 27 26 20 21 19 15 17 11 9 14 15 18 24 26 22 25 26 25 26 26 24 23 22 21 20 17 15 15 18 19 19 18 15 13
22 20 20 23 25 29 31 26 23 23 18 17 13 10 8 7 8 12 15 18 22 26 24 26 27 28 27 26 26 26 24 23 23 19 16 17 19 19 18 15 14 14
19 18 19 21 23 28 30 24 20 17 12 12 16 12 10 7 6 12 14 18 21 24 26 25 26 29 28 26 26 26 25 24 24 22 19 19 20 19 16 15 13 14
19 18 18 18 21 23 22 19 15 11 12 14 16 13 11 8 7 10 13 15 21 19 26 24 29 28 27 25 23 25 26 25 25 24 24 22 21 17 14 15 16 17
19 18 17 17 18 19 15 14 13 11 12 11 7 14 11 9 9 12 13 17 16 22 25 27 30 31 27 23 22 22 21 21 25 25 24 21 19 16 15 17 16 16
17 17 15 15 15 16 11 9 10 10 10 9 10 12 15 21 19 17 21 22 21 19 25 26 31 25 24 22 21 19 17 26 24 20 22 20 19 16 18 18 13 15
16 15 14 12 12 13 12 8 6 6 6 7 9 13 18 20 20 24 27 26 24 23 23 29 26 17 20 19 20 18 17 20 20 20 24 20 21 19 19 16 15 17
nan 13 13 12 12 12 13 11 5 4 3 5 10 15 15 16 23 23 28 28 27 25 21 21 20 22 23 21 20 20 22 17 21 19 23 24 24 21 20 19 19 16
nan 11 11 11 12 12 12 10 7 4 7 7 9 13 15 19 25 23 21 24 27 28 25 21 18 25 24 19 19 21 21 20 23 19 23 25 23 20 22 21 18 12
nan 12 12 11 11 12 12 10 8 8 8 10 10 13 17 17 17 22 23 23 25 23 19 18 20 21 21 19 20 20 22 22 23 22 23 24 21 19 19 16 13 16
nan 13 14 12 12 13 13 12 11 10 10 11 12 15 17 19 22 23 24 24 23 24 21 21 21 20 24 24 23 22 22 23 24 24 23 21 19 20 16 13 20 28
nan nan nan nan 15 15 15 14 13 13 12 13 15 17 17 18 21 23 22 25 28 25 22 21 19 21 27 25 24 26 24 23 21 19 21 19 20 15 12 20 28 30
nan nan nan nan nan nan nan nan nan nan nan nan nan 15 16 15 19 23 23 24 25 26 27 27 25 24 27 28 21 20 19 22 21 17 17 18 14 12 17 26 28 29
nan nan nan nan nan nan nan nan nan nan nan nan nan nan nan nan 19 19 21 25 28 31 33 33 29 30 27 29 23 18 16 22 22 20 19 14 13 20 23 27 28 28
nan nan nan nan nan nan nan nan nan nan nan nan nan nan nan nan nan nan nan 25 27 30 31 32 31 28 29 32 26 23 20 21 20 19 16 18 19 20 27 30 29 27
nan nan nan nan nan nan nan nan nan nan nan nan nan nan nan nan nan nan nan nan nan 28 nan nan nan nan nan 32 28 25 24 nan nan 22 nan 26 24 27 27 29 31 25
nan nan nan nan nan nan nan nan nan nan nan nan nan nan nan nan nan nan nan nan nan nan nan nan nan 36 34 33 29 25 24 21 21 24 27 24 23 35 33 30 27 26
nan nan nan nan nan nan nan nan nan nan nan nan nan nan nan nan nan nan nan nan nan nan nan nan nan nan 37 nan 31 nan nan 23 26 26 25 29 36 39 38 36 36 30
nan nan nan nan nan nan nan nan nan nan nan nan nan nan nan nan nan nan nan nan nan nan nan nan nan nan nan 36 36 nan 27 28 nan nan 27 38 38 42 40 39 42 47
nan nan nan nan nan nan nan nan nan nan nan nan nan nan nan nan nan nan nan nan nan nan nan nan nan nan nan nan nan 33 32 33 34 nan 31 33 35 37 38 36 37 42
nan nan nan nan nan nan nan nan nan nan nan nan nan nan nan nan nan nan nan nan nan nan nan nan nan nan nan nan 41 41 42 37 nan 31 30 nan nan 36 36 36 nan 39
Wind_Direction
298 295 295 295 293 294 300 305 306 306 302 301 300 302 301 289 286 288 289 285 279 272 274 277 268 258 254 255 256 241 232 245 256 253 255 246 235 237 249 249 252 250
292 291 291 292 293 294 296 297 298 295 293 290 289 288 287 279 275 283 288 285 283 283 287 284 276 272 267 264 261 254 240 238 242 244 252 265 251 253 252 251 250 242
294 293 293 294 294 294 297 297 293 288 280 277 278 275 268 267 269 281 288 285 282 284 285 283 279 281 279 273 262 261 253 244 241 243 241 247 250 251 257 253 249 242
296 297 297 297 296 298 299 296 289 279 274 270 267 265 264 264 267 276 285 284 281 283 283 282 286 286 282 273 272 260 258 252 248 247 244 246 248 248 250 249 242 231
298 300 299 299 300 302 300 296 290 279 268 261 256 253 255 248 261 275 279 279 279 279 281 287 288 284 281 276 278 268 263 258 257 254 253 256 253 251 249 255 255 247
298 301 301 303 305 304 305 301 290 285 271 245 227 233 245 245 259 279 281 278 278 270 280 286 289 289 285 280 273 270 266 265 263 266 270 269 263 256 251 257 271 282
298 304 306 305 307 305 304 301 288 280 268 259 238 213 226 240 266 283 280 272 277 284 286 287 292 287 283 275 279 275 271 267 268 273 276 267 264 261 258 260 260 272
299 303 306 306 306 305 305 301 292 278 267 243 242 213 189 204 260 277 277 272 266 272 278 292 289 284 277 273 269 271 274 269 270 274 273 264 261 263 268 263 258 273
298 304 305 311 314 308 298 289 283 270 248 221 220 219 191 191 242 267 268 273 277 283 285 282 285 277 278 277 274 273 273 271 268 265 260 257 256 258 271 272 273 264
291 297 306 313 320 317 302 281 277 272 251 237 214 234 205 188 225 231 246 258 267 265 270 277 277 274 274 277 281 274 271 272 260 250 251 257 258 262 264 255 257 262
290 295 303 312 322 327 321 290 270 268 268 248 232 228 201 204 201 230 231 231 241 262 263 268 267 269 272 273 268 266 262 252 252 262 266 259 259 262 261 265 261 266
290 293 296 303 315 329 339 331 300 273 256 234 211 207 209 209 215 216 225 221 228 241 247 253 260 265 275 275 272 266 251 253 254 253 264 266 259 256 260 255 252 265
nan 288 295 307 318 327 337 344 338 302 257 200 208 209 204 220 217 218 226 224 226 243 240 249 252 260 265 265 264 265 267 264 259 251 261 254 251 254 254 242 232 247
nan 284 292 306 316 323 329 332 328 286 254 241 225 216 209 221 228 225 228 232 237 241 238 246 252 251 254 261 259 255 250 254 257 253 251 251 250 244 241 225 219 233
nan 278 288 291 306 313 314 312 302 282 268 264 253 240 237 231 220 223 223 232 241 248 255 253 254 258 260 262 260 258 250 249 251 251 248 247 247 240 231 220 248 253
nan 274 280 282 284 290 297 300 297 286 272 262 258 253 249 235 230 231 235 239 247 251 254 254 258 261 256 257 256 258 252 246 242 243 244 240 237 232 225 246 259 262
nan nan nan nan 272 276 280 282 282 280 276 270 264 262 250 248 246 243 247 243 240 248 258 259 249 252 261 257 257 254 253 246 240 237 236 227 230 245 263 267 267 268
nan nan nan nan nan nan nan nan nan nan nan nan nan 258 257 255 261 254 247 248 243 249 249 250 256 244 251 250 252 253 247 243 231 227 235 236 244 261 261 268 265 266
nan nan nan nan nan nan nan nan nan nan nan nan nan nan nan nan 256 263 256 248 240 240 249 253 251 231 236 237 231 240 244 244 233 230 231 210 256 275 265 262 263 263
nan nan nan nan nan nan nan nan nan nan nan nan nan nan nan nan nan nan nan 241 241 243 244 246 245 231 233 232 218 215 231 230 235 237 243 254 253 255 261 265 261 256
nan nan nan nan nan nan nan nan nan nan nan nan nan nan nan nan nan nan nan nan nan 241 nan nan nan nan nan 226 218 206 208 nan nan 236 nan 243 247 258 252 257 261 260
nan nan nan nan nan nan nan nan nan nan nan nan nan nan nan nan nan nan nan nan nan nan nan nan nan 229 226 220 216 211 211 222 238 247 251 251 252 246 237 234 250 260
nan nan nan nan nan nan nan nan nan nan nan nan nan nan nan nan nan nan nan nan nan nan nan nan nan nan 220 nan 218 nan nan 230 237 234 248 252 248 244 239 233 231 241
nan nan nan nan nan nan nan nan nan nan nan nan nan nan nan nan nan nan nan nan nan nan nan nan nan nan nan 219 219 nan 228 241 nan nan 235 250 246 242 240 238 238 232
nan nan nan nan nan nan nan nan nan nan nan nan nan nan nan nan nan nan nan nan nan nan nan nan nan nan nan nan nan 220 236 249 246 nan 236 234 240 240 242 246 246 244
nan nan nan nan nan nan nan nan nan nan nan nan nan nan nan nan nan nan nan nan nan nan nan nan nan nan nan nan 225 227 236 253 nan 234 233 nan nan 245 247 246 nan 246